+ View the NASA Portal
+ Center for Near-Earth Object Studies
IMPORTANT:
The SSD Announcement email list is now available. Major changes are coming in the near future, including possible hostname and/or URL changes. To be notified of such changes, subscribe to this email list.
Please visit
this page
for more details.
Don't show this message again
JPL Small-Body Database Browser
Search:
[
help
]
214422 (2005 QE6)
Classification:
Main-belt Asteroid
SPK-ID:
2214422
[
Ephemeris
|
Orbit Diagram
|
Orbital Elements
|
Mission Design
|
Physical Parameters
|
Discovery Circumstances
|
Close-Approach Data
]
[ show orbit diagram ]
Orbital Elements at Epoch 2458600.5 (2019-Apr-27.0) TDB
Reference:
JPL 11
(heliocentric ecliptic J2000)
Element
Value
Uncertainty (1-sigma)
Units
e
.2275738486645002
6.4053e-08
a
3.123512602718019
3.532e-08
au
q
2.412682818365409
2.0726e-07
au
i
17.02948240735122
7.856e-06
deg
node
163.1289170740256
2.1487e-05
deg
peri
236.5841394271171
2.5934e-05
deg
M
132.6014232894976
1.6995e-05
deg
t
p
2457857.807555864037
(2017-Apr-14.30755586)
8.7687e-05
TDB
period
2016.33793405989
5.52
3.4201e-05
9.364e-08
d
yr
n
.1785415003700005
3.0284e-09
deg/d
Q
3.834342387070629
4.3358e-08
au
Orbit Determination Parameters
# obs. used (total)
224
data-arc span
6796 days (18.61 yr)
first obs. used
2000-09-26
last obs. used
2019-05-06
planetary ephem.
DE431
SB-pert. ephem.
SB431-N16
condition code
0
norm. resid. RMS
.64221
source
ORB
producer
Otto Matic
solution date
2019-May-30 08:21:21
Additional Information
Earth MOID
= 1.46216 au
Jupiter MOID
= 1.82608 au
T_jup
= 3.109
[ show covariance matrix ]
[
Ephemeris
|
Orbit Diagram
|
Orbital Elements
|
Mission Design
|
Physical Parameters
|
Discovery Circumstances
|
Close-Approach Data
]
Physical Parameter Table
Parameter
Symbol
Value
Units
Sigma
Reference
Notes
absolute magnitude
H
15.4
n/a
MPO433401
214422 (2005 QE6)
Discovered 2005-Aug-24 by NEAT at Palomar
Reference:
20090509/Numbers.arc
Last Updated:
2009-05-11
[ show close-approach data ]
[
Ephemeris
|
Orbit Diagram
|
Orbital Elements
|
Mission Design
|
Physical Parameters
|
Discovery Circumstances
|
Close-Approach Data
]
2019-Dec-06 11:06 UT
(server date/time)
Site Manager:
Ryan S. Park
Webmaster
:
Alan B. Chamberlin